Simultaneous Nadir Overpasses (SNOs) Predictions

Prediction of SNOs between AQUA and NOAA-19 Satellite Orbit:

Table of predicted SNOs for the next 14.0 days since TLE Epoch: 7/25/2014
Index Date (AQUA) Time (AQUA) Lat,Lon (AQUA) SZA (AQUA ) Date (NOAA-19) Time (NOAA-19) Lat,Lon (NOAA-19) SZA (NOAA-19 ) Distance(km) Time Diff (sec)
1 07/26/2014 22:20:13 -77.46, 8.74 121.24 07/26/2014 22:19:28 -77.46, 8.68 121.21 1.58 45
2 07/26/2014 23:09:25 76.74, 179.08 57.91 07/26/2014 23:10:08 76.74, 179.15 57.88 1.98 43
3 07/29/2014 03:05:13 -79.20, -71.08 118.43 07/29/2014 03:03:59 -79.05, -71.68 118.48 20.57 74
4 07/29/2014 03:53:50 77.02, 107.02 58.73 07/29/2014 03:54:03 77.01, 107.09 58.72 1.90 13
5 07/31/2014 08:38:15 77.29, 34.89 59.60 07/31/2014 08:37:58 77.28, 34.95 59.59 1.77 17
6 08/02/2014 13:22:39 77.52, -37.11 60.43 08/02/2014 13:21:52 77.51, -37.06 60.43 1.54 47
7 08/02/2014 14:11:50 -76.83, 133.19 120.41 08/02/2014 14:12:42 -76.81, 133.29 120.44 2.82 52
8 08/04/2014 18:08:48 81.37,-139.14 67.26 08/04/2014 18:07:35 80.86,-140.25 67.12 59.72 73
9 08/04/2014 18:56:14 -77.06, 61.24 119.55 08/04/2014 18:56:36 -77.05, 61.33 119.57 2.35 22




NCC Satellite Simultaneous Nadir Overpasses (SNOs) Prediction Service
